Regional Weather Roundup
Issued by NWS

Home | Current Version | Previous Version | Text Only | Print | Product List | Glossary Off
Versions: 1 2 3 4 5 6 7 8 9 10 11 12 13 14 15 16 17 18 19 20 21 22 23 24 25 26 27 28 29 30 31 32 33 34 35 36 37 38 39 40 41 42 43 44 45 46 47 48 49 50

000
ASUS43 KLMK 241510
RWRKY
KENTUCKY REGIONAL WEATHER ROUNDUP
NATIONAL WEATHER SERVICE LOUISVILLE KY
1100 AM EDT SUN SEP 24 2017

NOTE "FAIR" INDICATES FEW OR NO CLOUDS BELOW 12,000 FEET
WITH NO SIGNIFICANT WEATHER AND/OR OBSTRUCTIONS TO VISIBILITY.

KYZ001>023-026-027-061>063-070>075-241600-
WESTERN AND SOUTH CENTRAL KENTUCKY

CITY           SKY/WX    TMP DP  RH WIND       PRES   REMARKS
PADUCAH        SUNNY     82  69  64 SE5       30.05S
HENDERSON      SUNNY     81  68  64 CALM      30.08S
OWENSBORO      SUNNY     82  66  58 SE3       30.08S
HOPKINSVILLE   SUNNY     80  68  67 S6        30.07S
BOWLING GREEN  SUNNY     73  70  90 CALM      30.08S
GLASGOW        SUNNY     79  67  65 CALM      30.09S
$$

KYZ024-025-028>034-038-045-046-053-241600-
NORTH CENTRAL KENTUCKY

CITY           SKY/WX    TMP DP  RH WIND       PRES   REMARKS
LOUISVILLE/SDF MOSUNNY   79  66  64 E6        30.09S
LOUISVILLE/LOU SUNNY     79  67  66 CALM      30.10S
FORT KNOX      SUNNY     76  66  70 E5        30.08S
$$

KYZ035>037-039>044-047>052-055>060-089>105-241600-
NORTHEAST KENTUCKY

CITY           SKY/WX    TMP DP  RH WIND       PRES   REMARKS
LEXINGTON      SUNNY     79  64  60 SE6       30.13R
COVINGTON      SUNNY     77  64  64 SE5       30.13R
FRANKFORT      SUNNY     79  64  60 E6        30.11R
$$

KYZ054-064>069-076>088-106>120-241600-
SOUTHEAST KENTUCKY

CITY           SKY/WX    TMP DP  RH WIND       PRES   REMARKS
JACKSON        SUNNY     75  64  68 CALM      30.15S
LONDON         SUNNY     76  64  66 VRB3      30.14R
SOMERSET       SUNNY     75  63  64 S5        30.13S
MIDDLESBORO    SUNNY     77  62  59 CALM      30.15F
MONTICELLO     MOSUNNY   78  68  71 E8        30.13S
$$





USA.gov is the U.S. government's official web portal to all federal, state and local government web resources and services.